| time (UTC) | temp F | wind direction | speed MPH | gust MPH | rain 1hr in | rain 24hr in | rain mn in | humidity % | barometer mb |
| 20260905180023 | 60 | 265 | 1.0 | 0.0 | 0.00 | 0.00 | 0.02 | 78 | 1009.5 |
| 20260905174523 | 60 | 233 | 2.0 | 0.0 | 0.00 | 0.00 | 0.02 | 76 | 1009.0 |
| 20260905173021 | 61 | 267 | 1.0 | 0.0 | 0.00 | 0.00 | 0.02 | 74 | 1008.9 |
| 20260905171528 | 61 | 219 | 1.0 | 0.0 | 0.00 | 0.00 | 0.02 | 74 | 1008.7 |
| 20260905170022 | 61 | 219 | 1.0 | 0.0 | 0.00 | 0.00 | 0.02 | 73 | 1008.7 |
| 20260905164517 | 62 | 222 | 2.0 | 0.0 | 0.00 | 0.00 | 0.02 | 74 | 1008.6 |
| 20260905163021 | 62 | 189 | 1.0 | 0.0 | 0.00 | 0.00 | 0.02 | 73 | 1008.5 |
| 20260905161514 | 63 | 281 | 1.0 | 0.0 | 0.00 | 0.00 | 0.02 | 72 | 1008.2 |
| 20260905160013 | 63 | 166 | 1.0 | 0.0 | 0.00 | 0.00 | 0.02 | 71 | 1008.0 |
| 20260905154512 | 64 | 225 | 2.0 | 0.0 | 0.00 | 0.00 | 0.02 | 71 | 1007.9 |
| 20260905153014 | 64 | 220 | 2.0 | 0.0 | 0.00 | 0.00 | 0.02 | 73 | 1007.8 |
| 20260905151511 | 64 | 274 | 1.0 | 0.0 | 0.00 | 0.00 | 0.02 | 71 | 1007.7 |
| 20260905150009 | 65 | 223 | 2.0 | 0.0 | 0.00 | 0.00 | 0.02 | 70 | 1007.6 |
| 20260905144506 | 66 | 205 | 2.0 | 0.0 | 0.00 | 0.00 | 0.02 | 69 | 1007.3 |
| 20260905143006 | 66 | 296 | 2.0 | 0.0 | 0.00 | 0.00 | 0.02 | 71 | 1007.3 |
| 20260905141506 | 66 | 227 | 2.0 | 0.0 | 0.00 | 0.00 | 0.02 | 73 | 1007.2 |
| 20260905140006 | 65 | 237 | 1.0 | 0.0 | 0.00 | 0.00 | 0.02 | 73 | 1007.2 |
| 20260905134505 | 64 | 259 | 1.0 | 0.0 | 0.00 | 0.00 | 0.02 | 74 | 1007.1 |
| 20260905133006 | 63 | 259 | 1.0 | 0.0 | 0.00 | 0.00 | 0.02 | 78 | 1007.0 |
| 20260905131506 | 63 | 232 | 1.0 | 0.0 | 0.00 | 0.00 | 0.02 | 75 | 1006.9 |
| 20260905130003 | 66 | 234 | 2.0 | 0.0 | 0.00 | 0.00 | 0.02 | 71 | 1007.0 |
| 20260905124600 | 66 | 260 | 2.0 | 0.0 | 0.00 | 0.00 | 0.02 | 73 | 1006.7 |
| 20260905123101 | 65 | 211 | 1.0 | 0.0 | 0.00 | 0.00 | 0.02 | 75 | 1006.6 |
| 20260905121557 | 65 | 233 | 1.0 | 0.0 | 0.00 | 0.00 | 0.02 | 74 | 1006.3 |
| 20260905120057 | 66 | 240 | 2.0 | 0.0 | 0.00 | 0.00 | 0.02 | 74 | 1006.3 |
| 20260905114605 | 65 | 246 | 2.0 | 0.0 | 0.00 | 0.00 | 0.02 | 75 | 1006.1 |
| 20260905113052 | 65 | 237 | 1.0 | 0.0 | 0.00 | 0.00 | 0.02 | 77 | 1006.1 |
| 20260905111622 | 64 | 237 | 1.0 | 0.0 | 0.00 | 0.00 | 0.02 | 76 | 1005.9 |
| 20260905110056 | 64 | 265 | 1.0 | 0.0 | 0.00 | 0.00 | 0.02 | 77 | 1005.8 |
| 20260905104608 | 64 | 234 | 2.0 | 0.0 | 0.00 | 0.00 | 0.02 | 74 | 1005.7 |
| 20260905103048 | 64 | 250 | 1.0 | 0.0 | 0.00 | 0.00 | 0.02 | 75 | 1005.7 |
| 20260905101551 | 64 | 236 | 1.0 | 0.0 | 0.00 | 0.00 | 0.02 | 75 | 1005.4 |
| 20260905100046 | 64 | 277 | 2.0 | 0.0 | 0.00 | 0.00 | 0.02 | 76 | 1005.4 |
| 20260905094641 | 63 | 231 | 1.0 | 0.0 | 0.00 | 0.00 | 0.02 | 76 | 1005.4 |
| 20260905093042 | 64 | 232 | 3.0 | 0.0 | 0.00 | 0.00 | 0.02 | 73 | 1005.3 |
| 20260905091547 | 63 | 277 | 1.0 | 0.0 | 0.00 | 0.00 | 0.02 | 74 | 1005.0 |
| 20260905090040 | 63 | 282 | 1.0 | 0.0 | 0.00 | 0.00 | 0.02 | 77 | 1005.0 |
| 20260905084549 | 62 | 246 | 2.0 | 0.0 | 0.00 | 0.00 | 0.02 | 79 | 1004.9 |
| 20260905083033 | 62 | 210 | 2.0 | 0.0 | 0.00 | 0.00 | 0.02 | 79 | 1004.7 |
| 20260905081532 | 61 | 209 | 2.0 | 0.0 | 0.00 | 0.00 | 0.02 | 80 | 1004.6 |
| 20260905080031 | 61 | 227 | 1.0 | 0.0 | 0.00 | 0.00 | 0.02 | 81 | 1004.6 |
| 20260905074529 | 61 | 242 | 1.0 | 0.0 | 0.00 | 0.00 | 0.02 | 82 | 1004.3 |
| 20260905073026 | 60 | 229 | 1.0 | 0.0 | 0.00 | 0.00 | 0.02 | 83 | 1004.3 |
| 20260905071526 | 60 | 222 | 1.0 | 0.0 | 0.00 | 0.00 | 0.02 | 83 | 1004.3 |
| 20260905070024 | 60 | 215 | 1.0 | 0.0 | 0.00 | 0.00 | 0.02 | 83 | 1004.2 |
| 20260905064522 | 60 | 234 | 1.0 | 0.0 | 0.00 | 0.00 | 0.02 | 84 | 1004.1 |
| 20260905063021 | 59 | 215 | 1.0 | 0.0 | 0.00 | 0.00 | 0.02 | 85 | 1004.1 |
| 20260905061528 | 59 | 243 | 1.0 | 0.0 | 0.00 | 0.00 | 0.02 | 85 | 1004.0 |
| 20260905060027 | 58 | 230 | 0.0 | 0.0 | 0.00 | 0.00 | 0.02 | 86 | 1003.7 |
| 20260905054522 | 58 | 234 | 1.0 | 0.0 | 0.00 | 0.00 | 0.01 | 86 | 1003.6 |
| 20260905053015 | 58 | 273 | 0.0 | 0.0 | 0.00 | 0.00 | 0.01 | 86 | 1003.6 |
| 20260905051527 | 58 | 245 | 1.0 | 0.0 | 0.00 | 0.00 | 0.01 | 86 | 1003.5 |
| 20260905050014 | 58 | 257 | 0.0 | 0.0 | 0.00 | 0.00 | 0.01 | 86 | 1003.3 |
| 20260905044511 | 58 | 236 | 0.0 | 0.0 | 0.00 | 0.00 | 0.01 | 85 | 1003.0 |
| 20260905043014 | 58 | 252 | 1.0 | 0.0 | 0.00 | 0.00 | 0.01 | 85 | 1002.8 |
| 20260905041510 | 58 | 196 | 1.0 | 0.0 | 0.00 | 0.00 | 0.01 | 86 | 1002.7 |
| 20260905040009 | 58 | 281 | 2.0 | 0.0 | 0.00 | 0.00 | 0.01 | 85 | 1002.7 |
| 20260905034509 | 58 | 253 | 1.0 | 0.0 | 0.00 | 0.00 | 0.01 | 86 | 1002.5 |
| 20260905033008 | 58 | 265 | 0.0 | 0.0 | 0.00 | 0.00 | 0.01 | 85 | 1002.4 |
| 20260905031513 | 58 | 214 | 1.0 | 0.0 | 0.00 | 0.00 | 0.01 | 85 | 1002.5 |
| 20260905030006 | 58 | 242 | 0.0 | 0.0 | 0.00 | 0.00 | 0.01 | 85 | 1002.3 |
| 20260905024504 | 58 | 223 | 0.0 | 0.0 | 0.00 | 0.00 | 0.01 | 84 | 1002.1 |
| 20260905023009 | 58 | 246 | 1.0 | 0.0 | 0.00 | 0.00 | 0.01 | 85 | 1002.0 |
| 20260905021501 | 58 | 275 | 1.0 | 0.0 | 0.00 | 0.00 | 0.01 | 84 | 1001.9 |
| 20260905014559 | 58 | 246 | 1.0 | 0.0 | 0.00 | 0.00 | 0.01 | 85 | 1001.5 |
| 20260905013117 | 58 | 280 | 1.0 | 0.0 | 0.00 | 0.00 | 0.01 | 87 | 1001.2 |
| 20260905011606 | 58 | 250 | 2.0 | 0.0 | 0.00 | 0.00 | 0.01 | 87 | 1001.0 |
| 20260905010100 | 58 | 240 | 1.0 | 0.0 | 0.00 | 0.00 | 0.01 | 87 | 1001.0 |
| 20260905004555 | 58 | 248 | 1.0 | 0.0 | 0.00 | 0.00 | 0.01 | 88 | 1000.9 |
| 20260905003052 | 58 | 238 | 0.0 | 0.0 | 0.00 | 0.00 | 0.01 | 88 | 1000.7 |
| 20260905001552 | 58 | 225 | 2.0 | 0.0 | 0.00 | 0.00 | 0.01 | 87 | 1000.6 |
| 20260905000049 | 58 | 206 | 1.0 | 0.0 | 0.00 | 0.00 | 0.01 | 88 | 1000.5 |
| 20260904234550 | 58 | 221 | 1.0 | 0.0 | 0.00 | 0.00 | 0.01 | 88 | 1000.4 |
| 20260904233048 | 58 | 250 | 1.0 | 0.0 | 0.00 | 0.00 | 0.01 | 88 | 1000.4 |
| 20260904231546 | 58 | 224 | 0.0 | 0.0 | 0.00 | 0.00 | 0.00 | 89 | 1000.2 |
| 20260904230100 | 58 | 256 | 0.0 | 0.0 | 0.00 | 0.00 | 0.00 | 89 | 1000.3 |
| 20260904224546 | 58 | 226 | 0.0 | 0.0 | 0.00 | 0.00 | 0.00 | 89 | 1000.3 |
| 20260904223102 | 58 | 232 | 1.0 | 0.0 | 0.00 | 0.00 | 0.00 | 89 | 1000.1 |
| 20260904221541 | 58 | 242 | 2.0 | 0.0 | 0.00 | 0.00 | 0.00 | 89 | 1000.1 |
| 20260904220044 | 58 | 292 | 1.0 | 0.0 | 0.00 | 0.00 | 0.00 | 89 | 1000.0 |
| 20260904214547 | 58 | 232 | 1.0 | 0.0 | 0.00 | 0.00 | 0.02 | 90 | 999.9 |
| 20260904213041 | 57 | 308 | 1.0 | 0.0 | 0.00 | 0.00 | 0.02 | 91 | 999.9 |
| 20260904211539 | 57 | 211 | 1.0 | 0.0 | 0.00 | 0.00 | 0.02 | 91 | 999.7 |
| 20260904210037 | 57 | 254 | 1.0 | 0.0 | 0.00 | 0.00 | 0.02 | 91 | 999.6 |
| 20260904204538 | 57 | 284 | 1.0 | 0.0 | 0.00 | 0.00 | 0.02 | 92 | 999.3 |
| 20260904203036 | 56 | 229 | 1.0 | 0.0 | 0.00 | 0.00 | 0.02 | 92 | 999.3 |
| 20260904201542 | 57 | 242 | 2.0 | 0.0 | 0.00 | 0.00 | 0.02 | 93 | 999.1 |
| 20260904200043 | 57 | 244 | 2.0 | 0.0 | 0.00 | 0.00 | 0.02 | 93 | 998.9 |
| 20260904194534 | 58 | 245 | 0.0 | 0.0 | 0.00 | 0.00 | 0.02 | 93 | 998.7 |
| 20260904193039 | 57 | 244 | 0.0 | 0.0 | 0.00 | 0.00 | 0.02 | 93 | 998.6 |
| 20260904191532 | 57 | 204 | 0.0 | 0.0 | 0.00 | 0.00 | 0.02 | 93 | 998.7 |
| 20260904190031 | 57 | 257 | 0.0 | 0.0 | 0.00 | 0.00 | 0.02 | 92 | 998.4 |
| 20260904184529 | 58 | 234 | 1.0 | 0.0 | 0.00 | 0.00 | 0.02 | 92 | 998.4 |
| 20260904183028 | 58 | 244 | 0.0 | 0.0 | 0.00 | 0.00 | 0.02 | 92 | 998.2 |
| 20260904181527 | 58 | 225 | 0.0 | 0.0 | 0.00 | 0.00 | 0.02 | 91 | 998.2 |